Location: Cheyres
(46.8153°N, 6.7877°E)
Time: 10:52:04
(UTC+00:00)

Gbstr 26 Del rocket - Pass Details

Date: 26 September 2021
Orbit: 492 x 1263 km, 51.8° (Epoch: 18 October)

Event Time Altitude Azimuth Distance (km) Brightness Sun altitude
Rises 22:58:51 0° 277° (W) 4,125 7.4 -44.5°
Reaches altitude 10° 23:01:41 10° 281° (W) 3,208 6.8 -44.5°
Enters shadow 23:01:44 10° 281° (W) 3,190 6.8 -44.5°
